Date,TemperatureHighF,TemperatureAvgF,TemperatureLowF,DewpointHighF,DewpointAvgF,DewpointLowF,HumidityHigh,HumidityAvg,HumidityLow,PressureMaxIn,PressureMinIn,WindSpeedMaxMPH,WindSpeedAvgMPH,GustSpeedMaxMPH,PrecipitationSumIn
2013-1-1,35,16,-8,16,5,-12,93,65,42,30.16,30.10,15,3,25,0.01
2013-1-2,40,22,2,10,2,-8,77,44,25,30.16,30.08,11,5,22,0.00
2013-1-3,40,21,6,6,-5,-12,57,32,14,30.22,30.11,17,4,24,0.02
2013-1-4,49,19,6,9,-1,-8,76,44,11,30.24,30.17,11,2,13,0.00
2013-1-5,61,21,-1,11,0,-8,80,48,10,30.30,30.22,10,2,12,0.00
2013-1-6,41,29,17,14,5,-3,49,35,23,30.25,29.97,20,7,28,0.00
2013-1-7,44,30,15,18,10,2,68,45,28,30.04,29.95,16,7,23,0.00
2013-1-8,53,32,13,25,11,-4,66,41,21,30.22,30.03,9,3,16,0.00
2013-1-9,53,37,24,22,16,10,70,46,21,30.30,30.12,12,4,20,0.00
2013-1-10,38,32,21,28,18,12,100,58,41,30.12,29.75,36,17,56,5.88
2013-1-11,21,14,-3,21,3,-10,100,65,31,29.93,29.77,24,12,34,0.00
2013-1-12,34,6,-11,12,-7,-16,82,58,27,29.97,29.88,13,2,17,0.00
2013-1-13,31,8,-14,6,-7,-20,80,54,28,29.98,29.89,13,3,29,0.00
2013-1-14,23,8,-3,4,-6,-18,81,55,32,30.09,29.91,10,3,16,0.00
2013-1-15,36,16,-7,11,-2,-17,66,45,30,30.29,30.08,12,4,23,0.00
2013-1-16,53,27,12,24,10,1,65,50,30,30.33,30.25,10,4,18,0.00
2013-1-17,46,32,23,21,13,9,58,46,32,30.36,30.28,13,7,22,0.00
2013-1-18,63,33,20,25,15,9,67,49,22,30.32,30.23,9,2,13,0.00
2013-1-19,50,33,19,19,13,5,69,46,21,30.34,30.27,10,3,16,0.00
2013-1-20,64,31,14,19,6,-5,54,38,10,30.30,30.20,6,1,10,0.00
2013-1-21,51,36,20,10,4,-5,53,29,11,30.28,30.22,12,4,23,0.00
2013-1-22,68,36,19,20,9,1,68,36,12,30.32,30.27,9,2,15,0.00
2013-1-23,53,36,19,26,17,9,74,49,24,30.35,30.28,10,2,19,0.00
2013-1-24,44,38,34,40,32,24,99,80,52,30.31,30.26,15,3,28,0.04
2013-1-25,53,41,35,50,40,35,99,98,81,30.29,30.16,9,2,13,0.26
2013-1-26,42,39,37,42,39,37,99,99,99,30.16,29.95,18,6,30,1.28
2013-1-27,42,38,34,42,38,32,99,99,99,30.04,29.94,17,9,30,0.33
2013-1-28,33,26,17,33,25,15,100,96,75,29.95,29.86,22,10,42,0.15
2013-1-29,30,19,2,23,15,0,100,84,66,30.13,29.92,19,8,34,0.28
2013-1-30,42,27,10,27,18,4,91,68,49,30.26,30.13,16,5,21,0.00
2013-1-31,55,40,16,29,24,16,99,57,24,30.26,30.22,5,2,15,0.00
2013-2-1,57,35,15,33,20,14,100,64,22,30.32,30.24,9,2,15,0.18
2013-2-2,60,39,21,27,20,13,79,50,21,30.35,30.28,0,0,0,0.00
2013-2-3,46,37,29,35,29,19,100,73,47,30.28,30.10,0,0,0,0.00
2013-2-4,59,38,23,36,26,19,100,67,24,30.16,30.09,0,0,0,0.00
2013-2-5,59,37,20,31,20,16,91,57,20,30.14,30.06,0,0,0,0.00
2013-2-6,48,34,23,39,28,21,100,82,46,30.12,30.02,0,0,0,0.00
2013-2-7,50,35,19,41,26,19,99,74,36,30.18,30.03,0,0,0,0.02
2013-2-8,39,34,25,33,24,2,96,69,28,30.03,29.79,0,0,0,0.44
2013-2-9,26,22,19,24,22,19,100,96,76,29.96,29.72,0,0,0,0.00
2013-2-10,25,20,1,25,19,-1,100,97,88,29.96,29.89,0,0,0,0.00
2013-2-11,41,12,-6,22,7,-9,94,80,39,30.08,29.94,0,0,0,0.01
2013-2-12,46,20,0,22,10,-2,95,70,20,30.19,30.08,0,0,0,0.00
2013-2-13,49,26,5,27,13,2,95,64,34,30.19,30.14,0,0,0,0.00
2013-2-14,49,30,9,24,16,6,97,61,32,30.24,30.14,0,0,16,0.00
2013-2-15,55,36,18,16,6,-2,64,34,11,30.37,30.24,1,0,23,0.01
2013-2-16,58,38,14,20,8,0,63,34,10,30.37,30.17,0,0,1,0.00
2013-2-17,50,36,19,26,13,9,76,43,19,30.17,29.94,12,1,19,0.00
2013-2-18,52,34,15,23,12,-1,89,47,12,30.12,30.02,9,3,21,0.00
2013-2-19,43,33,19,27,16,9,81,52,25,30.04,29.71,23,9,44,0.03
2013-2-20,32,25,18,27,23,18,100,93,66,29.84,29.65,17,8,35,0.00
2013-2-21,29,23,11,27,23,10,100,97,85,29.98,29.84,11,5,25,0.00
2013-2-22,37,20,-1,25,9,-3,100,67,36,30.12,29.97,14,4,22,0.00
2013-2-23,42,25,7,26,16,4,100,70,45,30.11,29.85,20,8,40,0.02
2013-2-24,31,23,11,22,9,2,100,57,34,30.06,29.86,18,9,32,0.94
2013-2-25,46,30,15,17,9,5,71,45,20,30.14,30.05,15,4,27,0.00
2013-2-26,40,28,14,13,5,-4,90,41,20,30.13,29.99,18,6,29,0.15
2013-2-27,51,29,12,6,0,-10,67,30,12,30.25,30.13,10,4,21,0.00
2013-2-28,52,35,22,12,0,-10,56,25,10,30.38,30.24,11,4,21,0.00
2013-3-1,60,43,27,25,18,7,65,39,22,30.40,30.35,11,5,20,0.00
2013-3-2,67,43,24,33,21,17,84,47,19,30.40,30.24,9,3,20,0.00
2013-3-3,54,39,24,30,23,17,88,57,25,30.25,30.04,18,7,30,0.00
2013-3-4,55,41,24,30,24,17,82,52,28,30.19,29.99,12,5,23,0.00
2013-3-5,54,39,20,31,22,17,96,56,25,30.25,30.14,12,5,26,0.00
2013-3-6,57,42,24,34,25,19,89,54,26,30.14,30.04,19,8,36,0.02
2013-3-7,53,40,22,29,24,19,87,54,29,30.06,29.98,25,11,42,0.00
2013-3-8,41,32,23,35,28,23,99,88,55,29.98,29.81,26,10,36,0.08
2013-3-9,33,28,23,33,28,23,99,99,99,30.09,29.88,16,7,24,0.05
2013-3-10,48,36,24,29,22,12,100,63,32,30.25,30.09,12,6,23,0.00
2013-3-11,58,38,15,26,16,10,82,46,20,30.24,30.16,10,4,19,0.00
2013-3-12,64,43,23,33,23,17,80,51,28,30.29,30.18,10,4,21,0.00
2013-3-13,69,48,26,34,26,21,82,48,24,30.36,30.29,10,4,18,0.00
2013-3-14,77,50,27,30,24,20,81,42,17,30.37,30.29,13,4,21,0.00
2013-3-15,69,49,29,39,26,21,78,45,17,30.30,30.14,16,6,27,0.00
2013-3-16,65,44,30,41,30,22,99,65,21,30.14,29.99,19,6,30,0.18
2013-3-17,62,42,26,45,19,3,100,55,11,30.07,29.98,24,7,36,0.22
2013-3-18,61,44,24,25,15,8,69,36,15,30.14,30.06,23,8,34,0.04
2013-3-19,64,45,29,34,23,17,80,46,20,30.22,30.08,8,2,17,0.00
2013-3-20,58,44,27,35,26,19,78,52,33,30.22,30.02,43,8,43,0.02
2013-3-21,61,49,29,35,21,4,92,38,12,30.03,29.93,43,9,43,0.05
2013-3-22,58,41,23,25,7,-14,61,29,10,29.96,29.88,26,10,43,0.75
2013-3-23,46,34,18,2,-5,-12,42,20,10,30.10,29.95,23,10,35,1.62
2013-3-24,54,36,13,13,5,-2,61,31,14,30.11,30.03,18,6,32,0.02
2013-3-25,60,43,21,19,11,2,54,29,17,30.14,30.08,16,5,26,0.00
2013-3-26,60,42,24,25,17,14,70,40,18,30.13,30.03,23,8,42,0.12
2013-3-27,58,43,24,27,18,14,71,40,21,30.14,30.05,21,7,38,0.00
2013-3-28,60,45,23,31,22,15,76,43,25,30.22,30.13,17,7,34,0.00
2013-3-29,68,47,26,36,24,19,84,47,21,30.26,30.20,15,4,28,0.00
2013-3-30,62,45,27,34,24,-100,79,50,25,30.26,30.17,16,4,30,0.00
2013-3-31,64,48,25,37,27,22,91,50,23,30.20,30.10,19,7,34,0.01
2013-4-1,59,45,26,35,23,13,99,48,20,30.11,30.06,24,9,43,0.71
2013-4-2,56,40,22,28,22,14,77,50,29,30.12,30.04,18,7,35,0.11
2013-4-3,66,48,25,32,22,9,91,43,11,30.23,30.11,16,4,27,0.00
2013-4-4,66,48,23,29,20,14,68,38,18,30.26,30.16,12,5,29,0.00
2013-4-5,65,52,27,34,24,17,77,37,16,30.16,30.06,25,11,40,0.43
2013-4-6,65,50,26,35,27,21,86,44,24,30.14,30.05,19,7,31,0.00
2013-4-7,65,49,26,34,26,21,90,47,22,30.09,29.93,21,8,34,0.00
2013-4-8,46,40,32,36,29,20,99,66,38,29.93,29.60,31,16,56,2.41
2013-4-9,42,34,29,31,25,16,100,74,40,29.98,29.63,21,12,38,0.14
2013-4-10,52,37,24,25,17,6,83,48,16,30.10,29.98,20,8,33,0.07
2013-4-11,61,44,21,31,20,13,81,42,23,30.11,29.98,23,7,36,0.01
2013-4-12,65,47,22,30,22,14,76,42,18,30.06,29.96,11,4,28,0.00
2013-4-13,65,49,24,35,24,20,86,42,22,30.05,29.91,29,14,53,1.67
2013-4-14,64,53,40,31,27,23,52,38,24,29.94,29.85,26,14,43,0.31
2013-4-15,58,49,39,35,32,27,64,53,39,29.89,29.84,29,17,55,0.26
2013-4-16,54,44,32,36,27,14,82,55,22,29.89,29.83,31,20,57,9.22
2013-4-17,43,33,24,27,15,0,93,53,20,30.12,29.88,22,8,36,0.30
2013-4-18,51,34,14,9,1,-4,64,29,10,30.26,30.11,13,6,24,0.00
2013-4-19,62,41,16,12,4,-4,47,24,10,30.27,30.11,18,5,31,0.00
2013-4-20,65,48,21,20,11,6,56,26,10,30.18,30.09,17,7,28,0.01
2013-4-21,70,51,24,25,16,10,58,29,15,30.22,30.14,21,8,38,0.02
2013-4-22,72,54,27,27,19,11,58,27,16,30.17,30.03,25,11,41,0.54
2013-4-23,64,48,29,24,9,-9,54,25,10,30.11,30.01,17,6,28,0.00
2013-4-24,66,48,22,22,12,-4,35,24,17,30.13,30.08,17,7,34,0.00
2013-4-25,61,48,26,26,20,15,69,36,18,30.18,30.06,19,8,40,0.02
2013-4-26,68,52,25,32,21,14,85,36,15,30.29,30.19,15,6,30,0.00
2013-4-27,73,53,28,20,12,2,56,24,10,30.30,30.19,10,4,21,0.00
2013-4-28,77,54,28,23,14,2,41,22,12,30.22,30.08,14,5,28,0.00
2013-4-29,78,58,31,29,20,12,55,26,12,30.12,29.99,24,6,35,0.00
2013-4-30,72,61,40,27,18,11,40,20,12,30.05,29.99,29,14,53,4.14
2013-5-1,69,58,36,29,12,-9,38,17,10,30.29,30.05,18,8,30,0.00
2013-5-2,63,48,32,7,2,-9,25,16,10,30.38,30.29,20,11,37,0.36
2013-5-3,72,55,30,17,7,-2,35,15,10,30.32,30.07,14,6,29,0.00
2013-5-4,70,54,26,19,11,7,49,22,10,30.09,29.97,20,8,38,0.00
2013-5-5,64,53,36,27,19,8,36,26,19,30.10,30.01,22,12,38,0.02
2013-5-6,54,48,40,44,35,17,80,62,34,30.11,30.04,18,8,37,0.07
2013-5-7,55,45,31,44,37,29,100,76,38,30.09,30.02,25,12,46,0.28
2013-5-8,58,44,26,41,32,26,99,68,35,30.16,30.08,12,4,18,0.00
2013-5-9,63,45,28,41,33,28,100,68,29,30.19,30.12,19,4,27,0.01
2013-5-10,66,50,30,43,32,-100,100,58,30,30.30,30.17,12,5,24,0.01
2013-5-11,70,54,35,39,32,-100,87,49,23,30.36,30.28,21,8,40,0.08
2013-5-12,79,57,29,41,27,19,83,39,14,30.37,30.25,12,4,22,0.00
2013-5-13,80,60,33,37,29,21,64,34,18,30.33,30.21,12,4,24,0.00
2013-5-14,79,62,37,40,33,26,68,37,20,30.24,30.14,18,6,34,0.00
2013-5-15,75,60,35,34,22,7,75,28,12,30.19,30.11,29,12,55,1.68
2013-5-16,74,54,30,34,6,-100,47,25,12,30.16,30.05,25,10,46,0.06
2013-5-17,67,56,36,31,22,-100,51,30,19,30.11,30.06,24,11,42,0.13
2013-5-18,67,54,28,37,28,20,74,39,23,30.13,30.07,21,9,34,0.00
2013-5-19,71,56,32,38,26,17,80,37,16,30.13,30.03,28,11,48,1.31
2013-5-20,68,51,26,30,24,19,74,37,19,30.17,30.10,15,6,33,0.02
2013-5-21,74,56,27,34,23,15,73,33,15,30.17,30.06,18,8,30,0.00
2013-5-22,74,62,32,31,24,14,49,25,15,30.07,29.99,25,14,55,2.58
2013-5-23,72,61,44,28,24,19,37,24,17,30.10,29.99,27,15,56,0.22
2013-5-24,72,57,32,30,21,16,53,26,13,30.18,30.09,23,11,43,0.00
2013-5-25,74,60,34,26,19,13,49,22,12,30.18,30.12,20,11,40,0.01
2013-5-26,72,59,30,25,19,12,53,23,14,30.19,30.12,21,10,40,0.00
2013-5-27,72,59,30,28,23,11,47,27,17,30.15,30.04,18,7,31,0.00
2013-5-28,71,58,30,35,30,18,61,37,24,30.05,29.92,24,11,44,0.14
2013-5-29,74,58,32,38,31,24,90,40,22,30.03,29.94,27,13,47,1.09
2013-5-30,76,63,36,44,37,24,71,40,25,30.12,30.03,22,10,36,0.01
2013-5-31,82,65,39,49,38,21,85,40,21,30.17,30.11,12,4,23,0.00
2013-6-1,83,67,50,31,20,14,27,17,12,30.21,30.11,15,7,27,0.00
2013-6-2,83,67,46,39,27,13,40,23,16,30.15,30.05,24,8,40,0.16
2013-6-3,81,64,41,36,30,24,62,31,16,30.16,30.06,18,8,31,0.10
2013-6-4,81,66,36,32,26,19,57,24,14,30.48,30.12,23,8,35,0.00
2013-6-5,86,67,38,36,30,18,46,26,16,30.50,30.41,10,4,20,0.00
2013-6-6,91,68,39,39,29,23,56,27,14,30.47,30.40,12,4,25,0.00
2013-6-7,90,67,45,35,26,18,42,24,10,30.47,30.37,12,4,25,0.00
2013-6-8,91,70,41,38,28,17,41,22,14,30.49,30.39,25,9,41,0.06
2013-6-9,90,71,46,41,32,23,43,25,15,30.53,30.44,18,6,31,0.00
2013-6-10,86,67,41,36,22,12,45,21,10,30.53,30.43,27,10,46,1.01
2013-6-11,85,70,49,39,28,16,44,23,13,30.54,30.45,21,11,37,0.02
2013-6-12,85,67,44,36,30,23,45,27,15,30.57,30.49,20,6,30,0.00
2013-6-13,85,69,45,44,35,27,51,30,20,30.54,30.45,28,10,43,0.28
2013-6-14,83,67,40,39,33,26,59,30,19,30.50,30.41,25,10,62,0.49
2013-6-15,80,66,47,47,37,28,52,35,23,30.52,30.45,23,9,39,0.08
2013-6-16,83,63,43,40,31,23,57,33,17,30.56,30.48,21,8,43,0.00
2013-6-17,83,61,38,36,22,7,52,26,10,30.55,30.45,21,7,39,0.01
2013-6-18,83,60,33,31,17,6,33,20,13,30.49,30.39,21,7,43,0.02
2013-6-19,81,68,42,27,21,10,27,17,12,30.40,30.34,27,14,46,1.08
2013-6-20,78,67,36,27,24,16,44,20,14,30.43,30.38,20,11,40,0.00
2013-6-21,80,78,75,29,26,21,16,14,13,30.44,30.40,20,17,36,0.00
2013-6-22,80,72,42,37,30,18,41,22,15,30.47,30.38,18,12,38,0.00
2013-6-23,78,62,36,32,24,17,47,25,14,30.43,30.33,23,10,43,0.01
2013-6-24,76,65,52,36,29,23,35,26,15,30.45,30.34,23,12,46,0.04
2013-6-25,82,65,43,37,32,24,49,29,20,30.53,30.45,16,7,33,0.00
2013-6-26,85,61,40,35,26,22,51,29,16,30.61,30.53,15,4,27,0.00
2013-6-27,92,63,42,47,30,22,48,31,14,30.67,30.58,12,3,28,0.00
2013-6-28,89,66,52,45,37,32,50,35,20,30.62,30.55,18,5,31,0.25
2013-6-29,89,69,54,47,40,35,49,36,22,30.58,30.48,14,4,23,0.00
2013-6-30,89,67,55,49,42,38,54,43,22,30.55,30.45,23,4,39,0.16
2013-7-1,88,66,56,54,47,41,68,53,26,30.57,30.47,6,3,18,0.15
2013-7-2,84,62,49,61,54,44,100,76,41,30.62,30.48,19,6,30,0.01
2013-7-3,84,65,52,61,56,52,100,76,45,30.56,30.44,21,5,28,0.38
2013-7-4,87,74,53,58,55,52,99,55,35,30.55,30.42,16,8,24,0.00
2013-7-5,82,69,56,61,56,53,99,68,39,30.58,30.49,20,6,27,0.00
2013-7-6,82,62,54,61,56,52,100,83,44,30.57,30.52,19,4,30,0.10
2013-7-7,86,66,50,58,52,47,99,67,31,30.59,30.51,18,4,29,0.00
2013-7-8,87,61,50,53,46,-100,89,64,26,30.66,30.59,10,2,21,0.00
2013-7-9,91,66,51,54,45,36,82,53,23,30.73,30.61,12,3,25,0.00
2013-7-10,80,63,57,63,51,-100,100,70,35,30.66,30.59,10,4,22,0.06
2013-7-11,76,64,56,66,61,56,99,92,67,30.64,30.55,14,4,26,0.00
2013-7-12,75,59,50,65,57,50,99,93,58,30.63,30.57,15,4,25,0.02
2013-7-13,80,66,49,61,56,49,99,74,49,30.65,30.58,14,4,25,0.00
2013-7-14,86,66,53,62,58,53,100,76,37,30.66,30.57,24,4,33,0.03
2013-7-15,83,65,53,65,60,53,100,85,42,30.60,30.52,9,3,19,0.26
2013-7-16,75,64,58,63,61,58,100,89,62,30.66,30.56,8,3,14,0.22
2013-7-17,76,61,52,67,60,52,99,96,61,30.71,30.64,8,2,15,0.30
2013-7-18,81,60,53,65,59,53,100,95,53,30.68,30.60,13,3,25,0.22
2013-7-19,78,60,53,67,58,53,99,93,58,30.63,30.60,8,3,14,0.00
2013-7-20,81,67,56,68,62,56,99,88,58,30.59,30.50,13,4,23,0.12
2013-7-21,76,63,56,68,62,56,99,96,74,30.61,30.49,11,4,20,0.14
2013-7-22,71,64,58,68,64,58,99,98,89,30.64,30.59,9,3,17,0.10
2013-7-23,76,64,53,67,61,53,99,92,69,30.65,30.60,12,4,17,0.15
2013-7-24,81,61,51,67,59,51,99,92,52,30.62,30.56,16,3,47,0.72
2013-7-25,64,61,57,64,61,57,99,99,99,30.65,29.83,7,3,11,0.18
2013-7-26,78,64,54,65,58,53,99,84,49,30.44,30.37,23,6,35,0.45
2013-7-27,78,66,55,61,55,50,84,71,46,30.41,30.27,15,6,33,0.01
2013-7-28,76,64,51,64,56,46,84,76,47,30.27,30.22,18,6,28,0.20
2013-7-29,79,65,50,57,51,45,85,63,33,30.40,30.26,17,6,25,0.13
2013-7-30,86,67,49,54,47,39,85,56,20,30.48,30.40,10,3,20,0.00
2013-7-31,87,69,51,56,49,44,84,56,25,30.45,30.35,12,5,21,0.00
2013-8-1,79,68,58,63,56,51,85,69,42,30.37,30.29,16,5,27,0.00
2013-8-2,82,68,53,61,53,40,84,64,25,30.35,30.27,16,6,24,0.00
2013-8-3,82,68,53,59,52,47,85,61,30,30.38,30.31,12,5,21,0.00
2013-8-4,80,67,54,57,50,44,85,59,31,30.39,30.31,17,5,28,0.00
2013-8-5,79,64,49,54,46,34,85,59,20,30.37,30.28,16,5,24,0.00
2013-8-6,67,60,56,56,52,48,85,76,56,30.37,30.29,10,3,17,0.02
2013-8-7,77,63,51,54,48,44,85,62,32,30.35,30.27,12,4,21,0.02
2013-8-8,80,63,43,49,35,24,85,45,14,30.32,30.24,10,5,22,0.00
2013-8-9,81,57,42,41,32,22,75,46,13,30.32,30.27,15,4,30,0.02
2013-8-10,78,59,45,40,32,23,73,41,14,30.38,30.30,14,5,32,0.00
2013-8-11,78,65,51,51,46,38,85,51,24,30.37,30.28,16,8,27,0.00
2013-8-12,82,68,51,48,41,30,84,45,17,30.35,30.27,16,6,24,0.00
2013-8-13,83,61,45,42,34,-100,79,45,13,30.39,30.30,10,4,23,0.00
2013-8-14,83,64,44,44,33,-100,71,42,17,30.38,30.29,12,4,21,0.00
2013-8-15,81,58,53,54,32,-100,77,54,28,30.40,30.33,11,3,23,0.02
2013-8-16,85,64,50,55,43,-100,85,58,23,30.40,30.33,11,3,17,0.00
2013-8-17,85,63,52,56,49,-100,85,67,24,30.43,30.33,14,5,27,0.17
2013-8-18,84,67,51,57,50,40,84,60,26,30.37,30.32,16,4,29,0.00
2013-8-19,81,56,52,55,37,-100,85,67,32,30.38,30.32,10,3,18,0.00
2013-8-20,85,63,45,51,43,-100,84,59,20,30.35,30.26,11,4,29,0.00
2013-8-21,74,64,55,59,53,50,85,67,44,30.39,30.30,11,4,23,0.04
2013-8-22,82,65,54,57,52,49,84,67,32,30.37,30.26,8,3,17,0.00
2013-8-23,80,65,51,55,50,41,84,61,26,30.32,30.22,13,4,21,0.01
2013-8-24,72,59,53,59,50,-100,85,77,48,30.35,30.25,9,3,17,0.07
2013-8-25,64,58,55,59,53,50,84,84,84,30.38,30.30,8,2,16,0.38
2013-8-26,75,63,57,64,56,52,85,81,66,30.37,30.29,15,6,22,0.11
2013-8-27,74,61,55,61,55,50,84,79,57,30.34,30.30,11,4,21,0.00
2013-8-28,81,70,59,62,56,50,84,64,35,30.36,30.29,10,4,18,0.02
2013-8-29,75,62,51,64,55,46,84,81,58,30.41,30.35,7,2,15,0.26
2013-8-30,75,64,55,63,57,50,84,79,62,30.42,30.33,9,3,16,0.16
2013-8-31,72,61,55,65,54,-100,84,82,73,30.35,30.28,7,2,13,0.49
2013-9-1,80,64,51,62,55,46,84,74,46,30.33,30.26,12,3,21,0.43
2013-9-8,69,59,56,59,54,51,84,83,62,30.27,30.18,8,3,14,0.40
2013-9-9,61,57,54,56,52,49,84,84,84,30.21,30.10,10,3,15,0.60
2013-9-10,64,56,51,57,51,46,85,83,73,30.22,30.14,12,4,18,0.34
2013-9-11,65,56,47,57,50,42,85,82,67,30.30,30.22,11,4,19,0.17
2013-9-12,76,57,41,54,44,37,84,67,32,30.30,30.22,60,4,60,0.00
2013-9-13,78,60,45,51,44,40,84,62,27,30.24,30.12,9,3,15,0.00
2013-9-14,77,58,45,55,44,-100,84,68,39,33.96,30.11,10,3,17,0.14
2013-9-24,73,51,35,33,27,21,73,47,17,30.31,30.17,13,4,21,0.00
2013-9-25,68,59,41,37,31,26,58,36,23,30.14,30.00,23,12,36,0.00
2013-9-26,64,57,44,38,32,23,60,40,27,30.04,29.96,27,17,49,0.16
2013-9-27,55,42,32,29,19,9,64,43,17,30.27,30.04,9,3,16,0.00
2013-9-28,67,40,28,23,14,-100,64,42,14,30.35,30.26,12,3,22,0.00
2013-9-29,71,50,28,34,27,20,75,47,17,30.38,30.29,11,4,19,0.00
2013-9-30,71,50,27,29,23,16,84,46,12,30.31,30.22,10,4,21,0.00
2013-10-2,67,49,29,32,28,25,84,51,22,30.26,30.18,12,6,26,0.00
2013-10-3,65,52,33,37,27,19,84,40,19,30.17,30.03,28,10,40,0.00
2013-10-4,49,37,26,20,14,4,65,42,23,30.33,30.11,11,4,18,0.00
2013-10-5,49,39,32,11,7,4,34,26,20,30.39,30.32,14,6,23,0.00
2013-10-6,60,39,26,11,6,0,40,27,9,30.42,30.35,5,1,12,0.00
2013-10-7,60,40,34,17,11,7,36,30,16,30.35,30.22,6,2,8,0.00
2013-10-8,65,49,35,28,19,15,60,32,14,30.21,30.03,16,6,35,0.01
2013-10-9,59,50,46,38,26,17,63,41,19,30.03,29.94,25,16,49,0.02
2013-10-10,46,46,46,33,33,33,60,60,60,29.94,29.94,25,25,39,0.00